User: anonymous   Login
Location: Unspecified
(0.0000°N, 0.0000°E)
Time: 18:49:03
(UTC+00:00)
Language:

ERS 21 - Orbit

View from above orbital plane
View from above orbital plane
View from above satellite
View from above satellite

Ground track
Ground track

The orbit data is extracted from the following two-line orbital elements,

1 03430U 68081  C 95200.00000000 -.00000320 +00000-0 +10000-3 0 00013
2 03430 013.5815 011.0544 0006806 079.3747 345.3932 01.00245239098302
Epoch (UTC): 19 July 1995 00:00:00
Eccentricity: 0.0006806
inclination: 13.5815°
perigee height: 35765 km
apogee height: 35822 km
right ascension of ascending node: 11.0544°
argument of perigee: 79.3747°
revolutions per day: 1.00245239
mean anomaly at epoch: 345.3932°
orbit number at epoch: 9830

The dashed part of the orbit path shows where the satellite is in the earth's shadow,  

DLR